[[{"header":{"parameterUnit":"m.s-1","parameterCategory":1,"la1":30.2991,"la2":30.254,"lo1":-89.0895,"lo2":-89.0444,"dy":0.0017,"dx":0.0017,"nx":28,"ny":28,"refTime":"2025-11-29T09:00:00:Z","depth":0,"parameterNumber":2,"parameterNumberName":"U-component_of_WINDS"},"data":[0,0,0,0,0,0,0,0,0,0,0,0,0,0,0,0,0,0,0,0,0,0,0,0,0,0,0,0,0,0,0,0,0,0,0,0,0,0,0,0,0,0,0,0,0,0,0,0,0,0,0,0,0,0,0,0,0,0,-3.1086,-3.1086,0,-3.1109,-3.1109,-3.111,-3.0978,-3.0975,-3.0971,-3.0967,-3.0996,-3.1,-3.1004,0,0,0,0,0,0,0,0,0,0,0,0,0,-3.0933,-3.0936,-3.1086,-3.1086,-3.1086,-3.1109,-3.1109,-3.111,-3.0979,-3.0974,-3.097,-3.0966,-3.0994,-3.0999,-3.1004,0,0,0,0,0,0,0,0,0,0,0,0,0,-3.0982,-3.0938,-3.1086,-3.1024,-3.1018,-3.1109,-3.1109,-3.111,-3.098,-3.0974,-3.0969,-3.0963,-3.0993,-3.0999,-3.1005,-3.1158,0,0,-3.1025,-3.1027,0,0,0,0,0,0,0,0,-3.098,-3.0988,-3.1032,-3.1028,-3.1022,-3.1035,-3.1066,-3.1126,-3.0981,-3.0995,-3.0967,-3.0961,-3.1014,-3.1018,-3.1035,-3.1159,-3.116,-3.1025,-3.1029,-3.1032,-3.1034,0,0,0,0,0,0,0,-3.0976,-3.0986,-3.1095,-3.1033,-3.1027,-3.0996,-3.0997,-3.1077,-3.1036,-3.0993,-3.0984,-3.0988,-3.101,-3.1029,-3.1034,-3.1161,-3.1025,-3.1031,-3.1035,-3.1037,-3.1414,-3.142,0,0,0,0,0,0,-3.0981,-3.0984,-3.1094,-3.1096,-3.0987,-3.1004,-3.1005,-3.1037,-3.1034,-3.1029,-3.0993,-3.0982,-3.1021,-3.1027,-3.1035,-3.1216,-3.1032,-3.1038,-3.1041,-3.1408,-3.1416,-3.1422,0,0,0,0,0,0,-3.0978,-3.0992,-3.1093,-3.1037,-3.1048,-3.1012,-3.1049,-3.104,-3.1059,-3.1034,-3.1027,-3.102,-3.1017,-3.1026,-3.1128,-3.1215,-3.1041,-3.1046,-3.1401,-3.1411,-3.1419,-3.1577,0,0,0,0,0,0,-3.0974,-3.0991,-3.1048,-3.104,-3.1051,-3.1185,-3.1055,-3.1045,-3.107,-3.1056,-3.1057,-3.1052,-3.1013,-3.112,-3.1135,-3.122,-3.1051,-3.1393,-3.1405,-3.1416,-3.1564,-3.1591,-3.1613,0,0,0,0,0,-3.0969,-3.1091,-3.1051,-3.1065,-3.1121,-3.119,-3.1197,-3.1148,-3.1077,-3.1135,-3.1119,-3.1052,-3.1203,-3.1131,-3.1147,-3.1236,-3.1387,-3.1402,-3.1415,-3.1553,-3.1585,-3.1613,0,0,0,0,0,0,-3.1111,-3.1089,-3.1044,-3.1167,-3.1182,-3.1168,-3.1238,-3.1184,-3.1219,-3.1205,-3.1144,-3.1145,-3.1259,-3.1257,-3.1178,-3.1385,-3.1283,-3.1301,-3.1382,-3.1413,-3.1437,-3.1436,-3.1057,0,0,0,0,0,-3.1157,-3.1213,-3.1191,-3.1302,-3.1312,-3.1275,-3.1303,-3.1264,-3.1277,-3.1283,-3.1274,-3.1291,-3.1342,-3.1377,-3.1422,-3.1563,-3.1563,-3.1632,-3.1657,-3.1677,-3.1694,-3.1771,-3.1802,-3.1468,-3.1468,-3.1468,0,0,-3.1252,-3.1247,-3.1286,-3.1331,-3.1337,-3.14,-3.128,-3.1351,-3.1397,-3.1294,-3.139,-3.1385,-3.14,-3.1523,-3.1577,-3.1525,-3.1786,-3.1695,-3.1711,-3.1717,-3.1789,-3.182,-3.1848,-3.1478,-3.1476,-3.1474,0,0,-3.1457,-3.1457,-3.1551,-3.156,-3.1572,-3.1546,-3.1569,-3.1564,-3.1557,-3.1652,-3.1577,-3.1632,-3.1721,-3.1735,-3.1754,-3.1968,-3.1909,-3.1984,-3.2114,-3.219,-3.2216,-3.2239,-3.2318,-3.2347,-3.2,-3.2001,-3.2001,0,-3.1573,-3.1663,-3.1606,-3.1683,-3.1706,-3.1614,-3.171,-3.1722,-3.1749,-3.1768,-3.1709,-3.182,-3.1823,-3.195,-3.2003,-3.202,-3.2046,-3.1984,-3.2216,-3.2239,-3.226,-3.2334,-3.2364,-3.201,-3.2009,-3.2008,-3.2007,0,-3.1807,-3.1871,-3.1945,-3.1973,-3.2004,-3.209,-3.2049,-3.2088,-3.2047,-3.2029,-3.2129,-3.213,-3.2175,-3.2202,-3.2163,-3.2325,-3.2293,-3.2226,-3.2123,-3.2302,-3.2371,-3.2399,-3.2023,-3.202,-3.2017,-3.2015,0,0,-3.2102,-3.2098,-3.2127,-3.2139,-3.2146,-3.2195,-3.2278,-3.2321,-3.2357,-3.2379,-3.2449,-3.2527,-3.2467,-3.2488,-3.245,-3.2517,-3.269,-3.2442,-3.2442,-3.2491,-3.2871,-3.2923,-3.2956,-3.265,-3.2655,-3.2659,-3.2871,0,-3.2304,-3.2444,-3.2397,-3.254,-3.26,-3.2515,-3.2588,-3.2602,-3.2587,-3.2637,-3.2622,-3.2679,-3.2593,-3.2606,-3.2668,-3.2656,-3.2766,-3.2639,-3.2717,-3.2721,-3.2718,-3.2992,-3.3046,-3.3245,-3.2897,-3.2902,-3.2905,0,-3.2558,-3.259,-3.274,-3.2739,-3.2762,-3.2828,-3.2866,-3.2914,-3.2929,-3.2914,-3.294,-3.2888,-3.2972,-3.2868,-3.2984,-3.2899,-3.2928,-3.2927,-3.2934,-3.2941,-3.2825,-3.3009,-3.3307,-3.3339,-3.2947,-3.2943,-3.294,0,-3.2761,-3.2841,-3.2942,-3.2955,-3.2956,-3.3005,-3.3008,-3.3017,-3.3047,-3.308,-3.31,-3.3143,-3.3168,-3.3204,-3.3167,-3.3093,-3.329,-3.3182,-3.3283,-3.3284,-3.3329,-3.3327,-3.3639,-3.3345,-3.3344,-3.3344,-3.3343,0,-3.2993,-3.3088,-3.3033,-3.3095,-3.3201,-3.3147,-3.3253,-3.3247,-3.3256,-3.3317,-3.3247,-3.3306,-3.3252,-3.3308,-3.3279,-3.3382,-3.3393,-3.3385,-3.3377,-3.3393,-3.3394,-3.3412,-3.3398,-3.3352,-3.335,-3.3348,-3.3347,0,-3.3237,-3.3204,-3.3308,-3.3301,-3.3302,-3.338,-3.3375,-3.3433,-3.3414,-3.3493,-3.3508,-3.348,-3.3542,-3.3508,-3.3571,-3.3552,-3.3686,-3.3658,-3.3681,-3.3675,-3.3778,-3.377,-3.4115,-3.4158,-3.3834,-3.3837,-3.384,0,-3.3388,-3.3459,-3.346,-3.3496,-3.3503,-3.3561,-3.3592,-3.3543,-3.3578,-3.3602,-3.3659,-3.3714,-3.3756,-3.3859,-3.3845,-3.3894,-3.3868,-3.3985,-3.3875,-3.389,-3.3873,-3.387,-3.3878,-3.4008,-3.4012,-3.4015,-3.4018,0,-3.366,-3.364,-3.3686,-3.3728,-3.3767,-3.3798,-3.3822,-3.3856,-3.3808,-3.3851,-3.3913,-3.3946,-3.4011,-3.4068,-3.4111,-3.4116,-3.4061,-3.4052,-3.4079,-3.4097,-3.4108,-3.4106,-3.3744,-3.4045,-3.4042,-3.404,-3.4039,-3.4038,-3.3863,-3.3924,-3.3935,-3.3989,-3.4003,-3.4029,-3.4084,-3.4073,-3.4123,-3.4172,-3.414,-3.4215,-3.423,-3.4282,-3.4295,-3.4354,-3.4307,-3.4344,-3.4354,-3.4365,-3.438,-3.4098,-3.4361,-3.436,-3.4359,-3.4359,-3.4358,0,-3.4133,-3.4136,-3.4187,-3.4225,-3.4269,-3.4211,-3.4237,-3.4278,-3.4344,-3.4363,-3.4406,-3.4479,-3.4535,-3.4526,-3.4577,-3.4626,-3.4603,-3.4642,-3.4639,-3.4642,-3.4418,-3.4391,-3.4661,-3.4661,-3.466,-3.466,-3.466,-3.466,-3.4279,-3.4379,-3.4362,-3.447,-3.4473,-3.4544,-3.4564,-3.4589,-3.4604,-3.4688,-3.4734,-3.4728,-3.4737,-3.4789,-3.4839,-3.4835,-3.4858,-3.4908,-3.4895,-3.4687,-3.4657,-3.4628,-3.4603,-3.4913,-3.4913,-3.5114,-3.5116,-3.5117]},{"header":{"parameterUnit":"m.s-1","parameterCategory":1,"la1":30.2991,"la2":30.254,"lo1":-89.0895,"lo2":-89.0444,"dy":0.0017,"dx":0.0017,"nx":28,"ny":28,"refTime":"2025-11-29T09:00:00:Z","depth":0,"parameterNumber":3,"parameterNumberName":"V-component_of_WINDS"},"data":[0,0,0,0,0,0,0,0,0,0,0,0,0,0,0,0,0,0,0,0,0,0,0,0,0,0,0,0,0,0,0,0,0,0,0,0,0,0,0,0,0,0,0,0,0,0,0,0,0,0,0,0,0,0,0,0,0,0,-2.6379,-2.6381,0,-2.6492,-2.6493,-2.6494,-2.6496,-2.6495,-2.6494,-2.6492,-2.6602,-2.6607,-2.6611,0,0,0,0,0,0,0,0,0,0,0,0,0,-2.6161,-2.6165,-2.6379,-2.6381,-2.6382,-2.6492,-2.6493,-2.6495,-2.6497,-2.6495,-2.6493,-2.6492,-2.6601,-2.6606,-2.6611,0,0,0,0,0,0,0,0,0,0,0,0,0,-2.6263,-2.6167,-2.6379,-2.6396,-2.6399,-2.6491,-2.6493,-2.6495,-2.6497,-2.6495,-2.6493,-2.6491,-2.6599,-2.6606,-2.6612,-2.6693,0,0,-2.6631,-2.6634,0,0,0,0,0,0,0,0,-2.6257,-2.6271,-2.6392,-2.6395,-2.6399,-2.6478,-2.6457,-2.6561,-2.6497,-2.646,-2.6492,-2.649,-2.6562,-2.6572,-2.6597,-2.6698,-2.6703,-2.6632,-2.6636,-2.6638,-2.664,0,0,0,0,0,0,0,-2.625,-2.6266,-2.6424,-2.6394,-2.6398,-2.6397,-2.6409,-2.6477,-2.6521,-2.6463,-2.6463,-2.6477,-2.6564,-2.6591,-2.66,-2.6704,-2.6632,-2.6637,-2.6641,-2.6644,-2.6877,-2.688,0,0,0,0,0,0,-2.624,-2.626,-2.642,-2.6427,-2.6321,-2.6403,-2.6416,-2.6455,-2.6521,-2.6529,-2.6478,-2.6476,-2.6581,-2.6592,-2.6604,-2.6704,-2.6638,-2.6644,-2.6648,-2.6875,-2.6878,-2.6881,0,0,0,0,0,0,-2.6236,-2.6255,-2.6416,-2.6344,-2.6364,-2.6409,-2.6452,-2.6458,-2.6485,-2.6532,-2.654,-2.6499,-2.658,-2.6595,-2.6671,-2.6708,-2.6647,-2.6653,-2.6872,-2.6876,-2.6879,-2.6904,0,0,0,0,0,0,-2.6229,-2.6253,-2.6285,-2.6345,-2.6368,-2.6483,-2.6454,-2.6462,-2.6497,-2.6495,-2.6553,-2.6561,-2.658,-2.6662,-2.6677,-2.6715,-2.6658,-2.6869,-2.6874,-2.6878,-2.69,-2.6908,-2.6915,0,0,0,0,0,-2.6222,-2.6287,-2.6287,-2.6306,-2.641,-2.6485,-2.6498,-2.652,-2.65,-2.6532,-2.6562,-2.6559,-2.6701,-2.6669,-2.6687,-2.6727,-2.6867,-2.6873,-2.6878,-2.6897,-2.6907,-2.6915,0,0,0,0,0,0,-2.6229,-2.6295,-2.6296,-2.6382,-2.6428,-2.6485,-2.6527,-2.6529,-2.658,-2.6577,-2.6599,-2.6612,-2.6689,-2.6715,-2.6679,-2.6809,-2.6781,-2.679,-2.679,-2.6799,-2.6806,-2.6799,-2.6663,0,0,0,0,0,-2.6241,-2.6298,-2.6351,-2.6422,-2.6446,-2.6482,-2.6516,-2.6528,-2.6576,-2.6595,-2.6631,-2.6676,-2.673,-2.6766,-2.6819,-2.6903,-2.6916,-2.694,-2.6947,-2.6953,-2.6961,-2.7008,-2.7019,-2.6898,-2.6898,-2.6898,0,0,-2.6265,-2.6308,-2.6343,-2.6425,-2.6462,-2.652,-2.6499,-2.656,-2.6602,-2.6604,-2.6679,-2.6706,-2.6758,-2.6839,-2.6877,-2.6864,-2.6997,-2.696,-2.6964,-2.6969,-2.7015,-2.7026,-2.7036,-2.6902,-2.6901,-2.6901,0,0,-2.634,-2.6378,-2.6443,-2.648,-2.6537,-2.6561,-2.6576,-2.6633,-2.6652,-2.6728,-2.6731,-2.678,-2.6874,-2.6911,-2.6942,-2.703,-2.7029,-2.7047,-2.7085,-2.7131,-2.714,-2.7149,-2.7181,-2.7193,-2.7054,-2.7054,-2.7054,0,-2.6363,-2.6452,-2.6474,-2.6537,-2.6573,-2.6578,-2.6643,-2.6677,-2.6748,-2.6772,-2.6757,-2.6875,-2.691,-2.7,-2.7022,-2.7046,-2.7064,-2.7041,-2.7137,-2.7146,-2.7155,-2.7186,-2.7198,-2.7056,-2.7056,-2.7056,-2.7056,0,-2.6478,-2.6539,-2.6583,-2.6654,-2.6694,-2.6757,-2.6788,-2.6826,-2.6835,-2.686,-2.6937,-2.6979,-2.7041,-2.7062,-2.7071,-2.7154,-2.7144,-2.7133,-2.7105,-2.7168,-2.7197,-2.7209,-2.7059,-2.7058,-2.7058,-2.7057,0,0,-2.6562,-2.6644,-2.666,-2.6692,-2.6755,-2.6802,-2.6864,-2.6927,-2.6959,-2.7007,-2.7059,-2.7138,-2.7129,-2.7164,-2.7176,-2.7216,-2.7284,-2.72,-2.7201,-2.7215,-2.7379,-2.7388,-2.7402,-2.7283,-2.7286,-2.7287,-2.7375,0,-2.6644,-2.6758,-2.678,-2.6878,-2.6935,-2.694,-2.6994,-2.7038,-2.7063,-2.7113,-2.7139,-2.7195,-2.7177,-2.7199,-2.7238,-2.7268,-2.7318,-2.7261,-2.7332,-2.7334,-2.7321,-2.7417,-2.7427,-2.7508,-2.7386,-2.7388,-2.739,0,-2.6756,-2.681,-2.6914,-2.697,-2.6994,-2.7043,-2.7102,-2.715,-2.7199,-2.7214,-2.7254,-2.7261,-2.7325,-2.7293,-2.7381,-2.7342,-2.7372,-2.739,-2.7394,-2.7403,-2.7367,-2.7429,-2.7534,-2.7547,-2.7408,-2.7407,-2.7405,0,-2.6808,-2.6905,-2.6981,-2.7008,-2.7075,-2.7109,-2.7138,-2.7185,-2.7221,-2.7272,-2.7295,-2.7351,-2.7383,-2.7425,-2.7448,-2.7422,-2.7534,-2.7504,-2.7548,-2.7547,-2.7572,-2.7571,-2.7684,-2.7589,-2.7589,-2.7588,-2.7588,0,-2.6899,-2.6963,-2.7006,-2.7052,-2.7123,-2.7147,-2.7216,-2.7244,-2.7286,-2.7337,-2.7344,-2.7391,-2.7417,-2.7467,-2.7485,-2.7555,-2.7568,-2.7582,-2.7586,-2.7582,-2.7581,-2.7603,-2.7599,-2.7592,-2.7591,-2.759,-2.759,0,-2.697,-2.7001,-2.7084,-2.7141,-2.7157,-2.7207,-2.7255,-2.7299,-2.7323,-2.7388,-2.7404,-2.7442,-2.7502,-2.7528,-2.7601,-2.7612,-2.7693,-2.7692,-2.7677,-2.7679,-2.7722,-2.7718,-2.7855,-2.7875,-2.7765,-2.7766,-2.7767,0,-2.7027,-2.7077,-2.714,-2.7176,-2.7206,-2.7263,-2.73,-2.7325,-2.7363,-2.7423,-2.746,-2.752,-2.757,-2.7665,-2.7698,-2.7754,-2.7755,-2.7799,-2.7763,-2.7758,-2.7757,-2.7755,-2.776,-2.7806,-2.7807,-2.7808,-2.7809,0,-2.7125,-2.7138,-2.7193,-2.7253,-2.7298,-2.7346,-2.7393,-2.7421,-2.7452,-2.7495,-2.7557,-2.7596,-2.7671,-2.7731,-2.7789,-2.7817,-2.7818,-2.782,-2.7833,-2.7831,-2.7821,-2.7828,-2.7697,-2.7817,-2.7816,-2.7815,-2.7815,-2.7815,-2.7192,-2.7237,-2.7289,-2.7349,-2.7387,-2.7431,-2.7476,-2.7507,-2.756,-2.7625,-2.7635,-2.7701,-2.7748,-2.7827,-2.7856,-2.7908,-2.7897,-2.7916,-2.7921,-2.7926,-2.7929,-2.7811,-2.7918,-2.7918,-2.7918,-2.7917,-2.7917,0,-2.7292,-2.7325,-2.7381,-2.7448,-2.7495,-2.7493,-2.7545,-2.7584,-2.7643,-2.7688,-2.7737,-2.7809,-2.7867,-2.7904,-2.7962,-2.7996,-2.7998,-2.8011,-2.8009,-2.8016,-2.7935,-2.7918,-2.8008,-2.8008,-2.8008,-2.8008,-2.8008,-2.8008,-2.7349,-2.7426,-2.7444,-2.7539,-2.7571,-2.7639,-2.7668,-2.7708,-2.7744,-2.7824,-2.7874,-2.7898,-2.7939,-2.8001,-2.8053,-2.8062,-2.8084,-2.8097,-2.8106,-2.803,-2.8021,-2.8012,-2.7997,-2.8102,-2.8102,-2.8183,-2.8184,-2.8184]}]]